Location: Chevoux
(46.3801°N, 4.9476°E)
Time: 17:28:44
(UTC+00:00)

COSMOS 2406 - Pass Details

Date: 28 January 2021
Orbit: 841 x 866 km, 71.0° (Epoch: 28 February)

Event Time Altitude Azimuth Distance (km) Brightness Sun altitude
Rises 17:36:31 0° 334° (NNW) 3,458 6.5 -10.1°
Reaches altitude 10° 17:39:01 10° 338° (NNW) 2,516 5.8 -10.5°
Maximum altitude 17:44:47 68° 61° (ENE) 931 3.2 -11.5°
Drops below altitude 10° 17:50:30 10° 144° (SE) 2,490 5.4 -12.5°
Sets 17:52:58 0° 147° (SSE) 3,419 6.2 -12.9°
